TimeEDT,TemperatureF,Dew PointF,Humidity,Sea Level PressureIn,VisibilityMPH,Wind Direction,Wind SpeedMPH,Gust SpeedMPH,PrecipitationIn,Events,Conditions,WindDirDegrees,DateUTC
12:53 AM,52.0,39.9,63,29.95,10.0,West,4.6,-,N/A,,Clear,280,2012-10-07 04:53:00
1:53 AM,51.1,37.9,61,29.97,10.0,West,5.8,-,N/A,,Clear,280,2012-10-07 05:53:00
2:53 AM,50.0,37.9,63,29.97,10.0,WNW,3.5,-,N/A,,Clear,290,2012-10-07 06:53:00
3:53 AM,46.0,39.0,76,29.99,10.0,SSW,3.5,-,N/A,,Clear,200,2012-10-07 07:53:00
4:53 AM,44.1,39.0,82,30.02,10.0,SSE,3.5,-,N/A,,Clear,150,2012-10-07 08:53:00
5:53 AM,44.1,39.0,82,30.03,10.0,Calm,Calm,-,N/A,,Clear,0,2012-10-07 09:53:00
6:53 AM,43.0,39.0,86,30.06,10.0,Calm,Calm,-,N/A,,Clear,0,2012-10-07 10:53:00
7:53 AM,45.0,39.0,80,30.07,10.0,Calm,Calm,-,N/A,,Clear,0,2012-10-07 11:53:00
8:53 AM,50.0,41.0,71,30.09,10.0,Calm,Calm,-,N/A,,Clear,0,2012-10-07 12:53:00
9:53 AM,53.1,37.0,55,30.09,10.0,Variable,3.5,-,N/A,,Clear,0,2012-10-07 13:53:00
10:53 AM,55.0,35.1,47,30.08,10.0,NW,8.1,-,N/A,,Clear,310,2012-10-07 14:53:00
11:53 AM,55.0,37.0,51,30.09,10.0,WSW,8.1,-,N/A,,Scattered Clouds,250,2012-10-07 15:53:00
12:53 PM,55.9,37.0,49,30.08,10.0,Variable,4.6,-,N/A,,Partly Cloudy,0,2012-10-07 16:53:00
1:53 PM,55.9,37.0,49,30.06,10.0,WSW,6.9,-,N/A,,Clear,250,2012-10-07 17:53:00
2:53 PM,55.9,37.0,49,30.06,10.0,West,4.6,-,N/A,,Clear,260,2012-10-07 18:53:00
3:53 PM,55.0,39.0,55,30.06,10.0,WSW,4.6,-,N/A,,Clear,240,2012-10-07 19:53:00
4:53 PM,55.0,35.1,47,30.04,10.0,WNW,3.5,-,N/A,,Clear,300,2012-10-07 20:53:00
5:53 PM,55.0,37.9,53,30.04,10.0,Calm,Calm,-,N/A,,Partly Cloudy,0,2012-10-07 21:53:00
6:53 PM,54.0,39.9,59,30.04,10.0,Calm,Calm,-,N/A,,Overcast,0,2012-10-07 22:53:00
7:53 PM,53.1,42.1,66,30.02,10.0,Calm,Calm,-,N/A,,Overcast,0,2012-10-07 23:53:00
8:53 PM,51.1,43.0,74,30.03,10.0,Calm,Calm,-,N/A,,Overcast,0,2012-10-08 00:53:00
9:53 PM,51.1,44.1,77,30.07,8.0,Calm,Calm,-,0.02,Rain,Light Rain,0,2012-10-08 01:53:00
10:53 PM,48.9,45.0,86,30.08,10.0,Variable,3.5,-,0.06,Rain,Light Rain,0,2012-10-08 02:53:00
11:53 PM,48.0,45.0,89,30.08,6.0,Calm,Calm,-,0.06,Rain,Light Rain,0,2012-10-08 03:53:00